Vertical_Velocity
8 8 13 3 -2 1 0 1 1 3 4 3 4 3 5 -2 8 1 2 -1 -2 -2 5 4 2 1 1 2 -2 5 -1 3 -3 0 2 3 -3 -2 -1 -2 -3 2 -1 2 5 -2 -8 1 -1 9 -2 5 -5 0
-9 -5 2 12 7 5 4 1 -2 2 0 5 2 0 6 5 -1 4 2 -2 -2 -3 4 1 1 3 3 1 -0 -1 1 1 -3 2 0 -1 1 -2 3 -6 6 -2 6 -2 2 3 -4 -8 5 -3 -7 2 6 -8
2 -7 -6 -4 0 7 7 6 2 2 1 -2 2 1 6 3 5 4 4 -1 -2 -0 1 -2 3 -1 1 2 2 -0 1 3 1 2 1 -2 -8 5 -1 2 -1 -2 7 2 -6 14 3 -3 -2 -7 -3 -6 -0 2
3 2 -1 -6 -3 -2 0 3 5 6 5 3 1 -1 0 2 6 8 4 1 2 2 -4 -0 2 -3 0 -2 1 -1 5 -2 0 1 -2 -0 1 6 -7 -3 7 -1 1 -3 -4 3 -1 7 0 -2 1 1 2 3
2 1 6 2 0 -7 2 -0 -0 -3 2 7 7 4 4 3 3 3 2 8 1 10 0 2 -4 2 -1 1 -0 1 1 2 1 -3 -3 -1 -1 -8 -1 1 11 -4 -4 -6 2 -2 -5 8 -2 1 -3 -2 1 -6
-0 -0 3 2 5 0 5 1 0 -1 -3 -3 -2 0 4 9 4 5 1 -2 -3 8 5 -2 -2 1 3 -2 1 3 0 1 1 1 2 -6 6 -6 -11 -1 30 -17 -3 2 1 -3 -3 1 -3 5 -6 -1 -2 -4
0 2 -1 1 -0 3 4 3 4 7 -4 3 -1 4 4 -1 -5 2 3 3 1 7 9 2 -2 5 2 4 3 2 -0 3 0 -1 1 -1 4 -2 -0 9 -6 1 -1 1 -0 -4 1 0 -10 1 0 -4 -6 -2
1 2 1 2 2 2 2 4 4 -1 22 3 11 4 -0 -1 2 2 -3 1 0 -1 4 5 5 1 5 1 1 6 4 3 6 4 6 2 -1 1 -4 4 2 -3 -0 0 -4 -4 -8 -5 1 -5 -6 -3 -4 -2
0 0 -0 -1 0 3 3 5 4 2 6 6 8 10 11 11 -1 -4 3 0 -0 -0 -4 -0 -1 2 3 8 4 3 3 -0 -2 -3 1 -5 2 3 -4 -1 0 1 -2 -3 0 -2 -5 -8 -8 -3 -5 -0 -7 -4
-0 -2 0 1 2 1 3 4 5 2 2 5 7 1 9 5 5 8 -4 -9 3 2 3 -3 1 -6 -9 1 1 -0 2 -3 -9 1 1 -3 -1 15 -10 2 0 1 -3 -5 -1 3 -2 -3 0 -6 0 -3 -6 -2
1 -1 -1 1 1 1 1 1 4 3 3 2 6 10 5 13 10 5 -8 2 -2 1 -2 1 -3 3 3 -5 -1 -4 -2 -4 -7 0 -4 -8 11 -6 2 3 4 -3 -3 -1 -5 -3 -3 -9 -8 -5 2 -0 -1 -1
3 6 1 2 1 4 2 1 6 4 2 1 3 10 12 10 6 1 -7 -5 2 5 -2 -2 -2 -8 -8 -4 -0 -4 -0 -1 -7 3 -0 -1 7 -7 4 2 1 -2 -1 -3 -2 -7 -5 0 -3 -5 -4 -1 -1 0
-3 0 1 -4 -2 0 1 1 2 3 2 2 3 2 1 -2 1 -9 -11 1 10 5 -3 2 -3 -5 -3 4 1 -3 -3 1 4 -1 2 1 -7 4 -0 -1 -1 -3 -3 -0 1 -5 -5 -4 0 -4 -2 -3 -3 1
4 3 3 9 6 7 6 5 0 3 3 2 14 -1 3 0 -7 -1 15 6 1 -2 -2 -4 -2 -6 -5 -8 -3 0 -2 -1 1 -0 0 -9 3 -0 -1 -3 -2 2 2 -1 -5 -5 -3 -2 -2 -1 -1 -3 -2 1
-2 -2 -4 4 5 -2 3 9 4 1 2 3 4 12 -3 8 -5 9 13 6 -2 -3 3 -3 -5 -5 -1 1 1 -3 -2 -3 -0 0 -3 4 -1 0 2 -3 -1 -3 -4 -3 -4 -2 -1 -2 -3 1 2 -1 -0 -1
1 1 5 2 0 1 2 3 -3 -1 -0 -1 -0 3 7 4 7 4 -7 -0 3 1 -4 0 -5 -3 -0 1 1 -2 -2 -1 -0 3 1 -1 1 0 -0 -1 3 -5 -4 -4 -2 -2 -2 -3 -2 1 3 -0 1 -4
9 5 -4 -4 2 -1 5 -5 25 2 -9 -10 3 7 7 9 5 9 4 4 2 0 -1 -5 -3 -3 -0 -1 -2 -1 -0 1 -1 -0 -1 -1 -1 -3 -2 0 -5 -3 -1 -1 -3 -1 -3 -3 0 -2 0 1 -1 -3
8 -0 -2 -4 1 1 2 -2 20 -3 -2 1 1 3 4 3 -1 -6 -1 5 1 0 0 -3 -5 -3 -3 -3 -1 -1 -3 -4 -4 -3 -3 -2 -1 -2 -4 -9 -1 -1 -0 -1 -3 -3 -3 -2 -1 1 1 0 2 -1
-2 -1 -3 -2 2 -0 2 -0 -20 -6 2 3 -1 0 -1 -2 -7 7 7 -0 6 -3 1 -4 -6 -2 -0 -0 -4 -3 -4 -4 -1 2 1 -0 -3 -0 4 2 -2 -3 -2 -2 -1 -3 -0 -2 -2 1 0 -1 0 -2
-3 1 1 2 -2 -0 -4 -3 -0 -2 4 9 3 1 -0 -2 0 4 5 2 -1 -5 -1 2 7 1 -1 -2 -1 -2 -0 1 1 2 7 2 6 -2 3 -0 1 -1 1 -2 0 -4 -0 2 -1 1 -1 -5 -3 1
-3 -1 -1 1 -1 -1 1 3 0 -0 1 1 1 -0 0 -2 0 0 2 0 2 -8 14 3 3 3 2 -0 0 0 2 1 3 -4 -5 4 9 2 3 1 2 2 -1 2 3 2 -3 -2 1 -1 -1 -2 -1 -2
0 1 4 -5 11 5 -2 -1 0 -0 -3 1 -4 -2 2 -0 -4 -8 -3 -8 -4 -2 0 19 17 -2 -7 -2 -3 -5 1 0 -1 -3 2 -7 -0 1 2 -1 1 3 0 -3 -2 -1 1 0 -0 0 -0 -1 -2 -0
-4 -2 6 4 -1 1 -5 -2 0 4 2 3 -1 0 -2 -1 -4 4 4 -2 -9 -6 5 -1 -11 -10 -11 -4 -0 -3 1 4 1 1 -3 0 2 -2 -1 -3 -1 1 2 -3 -2 -2 -0 1 1 -0 -3 -1 -1 1
-1 -6 -5 -3 -1 -3 -3 -1 -1 0 -1 0 0 -0 6 1 8 0 -1 7 7 4 -6 -2 -2 -5 3 6 -4 3 3 -1 3 -6 -4 3 1 1 -2 -2 1 -0 -1 0 1 -2 -2 -1 1 0 0 1 1 1
-3 -4 -3 -3 -1 -3 -0 1 2 2 -1 -1 1 3 1 -4 -5 -3 7 7 -1 -2 -4 0 -4 -4 -4 0 6 2 -3 -2 -1 3 -4 -1 3 1 -0 -1 -4 -4 -2 -1 0 1 -0 -1 1 1 1 0 -0 -1
-2 -2 1 1 0 1 3 2 0 -2 -1 0 1 -1 2 2 -0 -1 -5 0 2 -1 -2 -2 -0 0 -2 4 4 -3 -2 -4 -1 -1 -0 0 1 3 4 3 3 0 4 1 -1 -1 -0 1 2 1 -0 0 -0 2
-1 -2 -0 1 -0 2 3 3 0 0 -1 -4 -2 1 2 -0 1 0 1 2 1 1 -3 1 2 4 2 -2 -6 -4 -2 1 2 2 0 -0 3 2 4 6 5 4 -0 1 -0 -0 1 2 2 2 2 2 2 1
-0 -2 -3 -1 -0 2 2 -1 -4 -1 1 0 -1 0 -2 -2 -1 1 1 3 2 2 3 3 0 1 -2 -6 -4 -1 1 2 -0 -3 -2 1 6 3 1 0 -0 0 2 -0 0 1 3 3 3 3 3 2 2 1
2 1 1 -1 -1 -1 -2 1 -2 1 2 -3 -1 -2 -4 -2 -1 1 2 1 2 2 -1 -1 -2 -4 -2 0 1 1 0 -0 1 -2 -2 -2 -3 -1 0 0 -0 2 1 1 1 1 2 3 3 3 2 2 1 1
0 -1 -2 0 1 1 1 1 1 1 2 2 0 0 -0 -2 -3 -2 2 2 -1 -2 -1 -1 0 -1 2 3 3 1 -1 -1 1 1 1 -0 1 1 2 4 3 1 0 1 1 3 3 3 2 2 2 1 0 -0
1 0 -1 -1 -1 -0 2 3 3 3 3 4 4 2 2 -1 -3 -3 -3 -2 -1 1 2 2 2 2 0 -1 -1 -1 -1 -1 -1 1 3 3 2 3 3 0 0 0 -0 -0 1 1 1 2 2 2 2 2 2 1
1 2 2 1 -0 -1 -1 -1 -0 -0 0 1 2 2 2 2 1 2 2 1 1 1 2 2 0 -1 0 1 1 1 2 1 0 1 1 2 2 1 2 1 2 0 -1 1 1 1 2 2 3 2 2 1 1 1
-2 1 2 2 1 0 -1 -2 -1 -1 1 1 1 0 0 0 -0 1 1 1 1 1 1 1 0 0 1 1 1 1 2 3 2 2 2 1 0 -0 2 2 1 -1 -1 1 1 1 1 2 2 1 0 1 0 0
Height
5506 5514 5522 5529 5538 5545 5550 5556 5561 5567 5572 5578 5582 5587 5591 5593 5597 5600 5604 5606 5609 5612 5616 5618 5621 5624 5626 5626 5627 5630 5630 5630 5629 5628 5627 5626 5625 5625 5624 5623 5621 5618 5614 5612 5607 5601 5597 5597 5590 5588 5581 5574 5567 5563
5485 5491 5500 5509 5518 5526 5532 5538 5544 5550 5553 5560 5565 5571 5577 5580 5582 5585 5589 5590 5594 5596 5601 5602 5604 5607 5609 5611 5612 5612 5613 5613 5612 5612 5612 5610 5610 5610 5609 5608 5606 5604 5601 5597 5593 5587 5581 5577 5572 5566 5561 5559 5550 5544
5468 5473 5478 5488 5496 5506 5513 5519 5525 5532 5538 5541 5547 5552 5560 5563 5569 5572 5574 5575 5578 5583 5585 5588 5590 5592 5594 5595 5596 5598 5598 5597 5597 5596 5596 5595 5595 5596 5594 5593 5588 5586 5583 5580 5574 5573 5567 5558 5555 5548 5544 5539 5534 5524
5454 5458 5463 5467 5477 5486 5491 5498 5505 5512 5519 5524 5529 5534 5540 5546 5551 5556 5559 5561 5565 5567 5567 5572 5573 5576 5578 5578 5579 5580 5582 5582 5582 5581 5580 5579 5579 5579 5577 5574 5571 5567 5567 5561 5557 5554 5550 5544 5538 5532 5529 5523 5517 5510
5439 5445 5449 5454 5459 5468 5475 5479 5485 5491 5498 5505 5511 5517 5523 5528 5533 5538 5542 5546 5550 5554 5553 5555 5557 5560 5561 5562 5563 5565 5565 5565 5564 5565 5565 5563 5562 5560 5560 5556 5555 5549 5549 5544 5541 5536 5532 5530 5524 5517 5511 5505 5498 5491
5425 5430 5435 5440 5446 5452 5459 5466 5471 5476 5480 5485 5491 5497 5503 5507 5514 5518 5524 5529 5534 5538 5536 5537 5541 5544 5546 5547 5549 5550 5550 5550 5549 5549 5549 5548 5547 5543 5543 5543 5540 5532 5530 5528 5525 5518 5517 5513 5509 5501 5494 5488 5481 5474
5412 5416 5420 5426 5433 5439 5446 5452 5457 5465 5469 5478 5481 5485 5486 5488 5493 5501 5508 5512 5516 5519 5522 5523 5526 5530 5532 5533 5534 5533 5533 5534 5534 5533 5532 5531 5530 5528 5528 5528 5518 5517 5516 5513 5508 5504 5505 5495 5492 5488 5478 5470 5462 5456
5400 5403 5408 5412 5419 5426 5433 5440 5446 5454 5461 5466 5473 5474 5475 5478 5481 5485 5490 5496 5499 5503 5505 5508 5512 5515 5516 5517 5518 5517 5517 5517 5518 5517 5518 5515 5515 5514 5515 5511 5505 5502 5499 5497 5493 5487 5484 5481 5475 5469 5462 5455 5446 5440
5391 5393 5397 5401 5406 5413 5420 5427 5434 5441 5449 5457 5460 5465 5465 5467 5470 5476 5479 5482 5486 5490 5491 5493 5495 5498 5499 5501 5501 5501 5501 5502 5502 5504 5504 5502 5505 5503 5497 5497 5491 5487 5485 5483 5478 5473 5467 5462 5458 5455 5447 5440 5430 5426
5384 5386 5388 5391 5396 5401 5408 5415 5422 5428 5435 5443 5450 5455 5454 5456 5462 5464 5468 5472 5474 5477 5479 5482 5484 5487 5488 5488 5488 5489 5488 5488 5489 5493 5491 5492 5495 5487 5483 5483 5478 5474 5470 5468 5464 5461 5455 5451 5445 5440 5433 5426 5419 5414
5378 5380 5382 5385 5388 5393 5397 5404 5411 5416 5423 5431 5437 5444 5446 5448 5451 5452 5457 5463 5465 5468 5468 5470 5472 5474 5476 5478 5478 5478 5477 5477 5478 5482 5479 5480 5482 5470 5474 5470 5466 5462 5459 5455 5452 5448 5442 5436 5431 5426 5422 5416 5411 5406
5373 5377 5379 5381 5383 5386 5390 5395 5401 5407 5413 5419 5426 5432 5437 5439 5441 5444 5450 5455 5458 5459 5459 5461 5462 5464 5466 5467 5466 5466 5468 5466 5467 5468 5465 5467 5464 5463 5463 5459 5456 5453 5449 5446 5441 5435 5430 5425 5419 5414 5411 5407 5402 5398
5368 5372 5375 5377 5380 5382 5385 5388 5392 5398 5404 5411 5416 5420 5425 5430 5433 5439 5446 5449 5450 5450 5452 5454 5455 5457 5458 5458 5456 5456 5456 5456 5455 5455 5455 5455 5454 5455 5453 5451 5448 5445 5440 5435 5429 5424 5419 5414 5410 5406 5403 5398 5394 5390
5365 5368 5371 5374 5377 5379 5382 5385 5387 5391 5398 5404 5409 5413 5419 5422 5427 5434 5438 5440 5443 5445 5447 5448 5449 5450 5450 5449 5448 5447 5447 5446 5445 5446 5447 5446 5448 5447 5446 5443 5441 5437 5430 5425 5419 5413 5408 5404 5402 5398 5394 5390 5386 5383
5361 5365 5368 5371 5373 5376 5379 5382 5384 5387 5391 5397 5402 5407 5412 5417 5423 5428 5432 5434 5438 5440 5441 5442 5443 5444 5442 5441 5439 5439 5439 5439 5440 5440 5440 5442 5442 5441 5439 5435 5431 5426 5420 5414 5408 5402 5398 5396 5393 5390 5386 5382 5378 5374
5359 5362 5365 5368 5370 5374 5377 5380 5382 5385 5388 5392 5398 5404 5409 5413 5417 5421 5424 5429 5432 5434 5436 5438 5438 5437 5435 5434 5433 5433 5435 5436 5438 5438 5439 5438 5438 5436 5432 5428 5422 5416 5410 5403 5398 5393 5391 5388 5384 5381 5378 5373 5370 5366
5356 5359 5362 5365 5368 5371 5374 5378 5381 5383 5387 5389 5394 5398 5402 5406 5412 5415 5419 5423 5426 5429 5431 5432 5433 5431 5429 5428 5429 5432 5434 5435 5436 5436 5435 5434 5432 5428 5423 5418 5412 5405 5399 5394 5390 5386 5383 5379 5375 5372 5368 5365 5362 5357
5353 5355 5359 5363 5366 5368 5371 5375 5378 5380 5384 5386 5388 5391 5394 5399 5405 5410 5414 5417 5422 5425 5426 5428 5428 5427 5427 5428 5430 5431 5432 5432 5432 5431 5429 5427 5423 5419 5413 5407 5401 5395 5389 5385 5382 5379 5375 5371 5367 5364 5360 5357 5354 5349
5349 5351 5356 5361 5364 5366 5369 5372 5376 5378 5380 5383 5384 5387 5390 5394 5399 5405 5409 5413 5416 5419 5422 5423 5424 5426 5427 5428 5428 5428 5428 5428 5427 5426 5423 5419 5415 5410 5405 5398 5391 5386 5382 5378 5375 5371 5367 5362 5358 5355 5352 5349 5345 5342
5350 5352 5357 5360 5363 5365 5368 5372 5374 5376 5378 5380 5381 5382 5385 5389 5392 5398 5403 5408 5411 5414 5419 5421 5423 5423 5424 5425 5425 5424 5423 5422 5420 5418 5416 5412 5407 5401 5394 5387 5382 5379 5375 5372 5368 5362 5357 5354 5350 5347 5343 5340 5337 5335
5356 5357 5359 5362 5363 5366 5368 5369 5370 5371 5372 5373 5376 5377 5380 5385 5388 5393 5398 5401 5405 5411 5417 5418 5418 5419 5419 5420 5420 5419 5417 5415 5412 5408 5404 5400 5396 5390 5384 5379 5376 5373 5368 5363 5358 5354 5350 5346 5342 5338 5334 5331 5328 5325
5358 5359 5360 5363 5365 5367 5367 5368 5368 5368 5369 5369 5370 5372 5376 5381 5384 5388 5392 5396 5402 5408 5411 5413 5413 5413 5413 5414 5414 5412 5411 5408 5405 5401 5397 5391 5385 5381 5377 5373 5369 5365 5360 5353 5349 5345 5341 5338 5334 5329 5325 5321 5318 5315
5363 5363 5364 5366 5367 5367 5368 5366 5366 5366 5367 5366 5367 5370 5375 5379 5381 5384 5388 5392 5397 5403 5406 5406 5406 5408 5409 5408 5408 5406 5404 5402 5398 5394 5389 5384 5379 5374 5370 5365 5361 5356 5352 5346 5342 5338 5334 5330 5326 5321 5316 5312 5309 5309
5365 5365 5365 5365 5365 5366 5366 5366 5366 5366 5367 5368 5369 5372 5374 5376 5378 5381 5385 5388 5392 5393 5397 5400 5401 5403 5403 5404 5402 5400 5398 5396 5392 5386 5380 5377 5373 5369 5364 5359 5354 5349 5345 5342 5337 5333 5329 5323 5317 5312 5308 5305 5305 5305
5364 5364 5363 5361 5361 5361 5361 5362 5363 5364 5366 5367 5369 5370 5372 5374 5376 5379 5382 5384 5386 5390 5393 5396 5397 5397 5398 5398 5397 5394 5392 5388 5383 5379 5374 5371 5368 5364 5359 5354 5349 5345 5341 5337 5332 5327 5321 5315 5308 5305 5304 5303 5304 5306
5362 5361 5359 5358 5358 5358 5359 5359 5358 5359 5360 5363 5365 5366 5369 5370 5372 5373 5377 5380 5383 5386 5388 5390 5392 5393 5393 5392 5391 5388 5384 5380 5376 5373 5370 5367 5363 5359 5355 5351 5347 5343 5339 5334 5329 5323 5316 5311 5308 5306 5305 5307 5310 5313
5361 5360 5358 5357 5356 5357 5357 5357 5356 5355 5356 5356 5359 5362 5365 5367 5369 5371 5373 5376 5379 5381 5384 5386 5387 5388 5387 5385 5383 5380 5377 5375 5372 5369 5366 5362 5359 5355 5352 5349 5345 5342 5337 5332 5328 5321 5317 5314 5313 5313 5315 5317 5319 5321
5360 5359 5359 5358 5357 5356 5357 5356 5356 5355 5355 5355 5357 5359 5361 5364 5367 5369 5371 5373 5375 5378 5380 5382 5382 5382 5381 5379 5377 5375 5373 5371 5368 5365 5361 5358 5354 5352 5349 5347 5344 5341 5337 5333 5328 5326 5324 5323 5323 5324 5325 5326 5327 5328
5357 5357 5357 5357 5357 5357 5357 5357 5357 5356 5356 5355 5355 5357 5359 5362 5364 5367 5369 5372 5374 5376 5377 5378 5377 5376 5375 5374 5373 5372 5370 5368 5365 5361 5358 5355 5353 5351 5349 5347 5344 5341 5338 5335 5333 5332 5332 5332 5332 5333 5333 5333 5334 5334
5354 5353 5354 5355 5356 5356 5357 5357 5357 5357 5356 5356 5356 5356 5357 5359 5362 5366 5368 5370 5372 5373 5373 5373 5372 5371 5371 5371 5371 5370 5367 5365 5362 5360 5357 5354 5353 5352 5349 5347 5345 5343 5341 5340 5339 5339 5340 5340 5340 5340 5340 5340 5340 5340
5355 5354 5354 5354 5354 5355 5355 5356 5356 5356 5356 5355 5355 5355 5356 5358 5360 5363 5365 5367 5369 5370 5370 5370 5370 5370 5371 5370 5368 5366 5364 5362 5360 5358 5355 5354 5353 5352 5350 5349 5347 5346 5346 5346 5346 5346 5346 5346 5345 5345 5345 5345 5345 5345
5359 5358 5356 5355 5356 5356 5356 5356 5357 5357 5358 5359 5359 5360 5360 5361 5363 5364 5366 5367 5368 5369 5370 5370 5370 5370 5369 5368 5367 5366 5364 5361 5359 5357 5355 5354 5353 5352 5351 5351 5350 5350 5350 5350 5351 5351 5350 5350 5350 5350 5350 5350 5350 5350
5363 5361 5360 5360 5359 5360 5361 5361 5362 5363 5363 5364 5364 5365 5365 5366 5367 5368 5368 5369 5370 5370 5370 5370 5369 5368 5368 5367 5366 5365 5363 5361 5359 5357 5355 5354 5354 5353 5353 5353 5353 5353 5353 5354 5354 5354 5354 5354 5355 5355 5355 5355 5355 5355